Wind_Speed
17 20 17 16 14 16 17 17 19 17 17 16 17 18 18 19 20 22 23 25 25 25 24 24 25 25 26 27 29 29 31 31 29 31 29 29 29 27 27 29 28 28 29
21 18 18 17 15 16 17 18 19 18 17 17 18 19 19 19 19 21 23 23 24 24 22 23 25 26 26 28 29 31 32 30 30 29 29 29 28 26 26 27 26 27 28
25 20 19 18 17 17 18 18 18 19 19 20 21 20 18 20 21 24 25 24 24 23 21 23 24 25 26 27 29 29 28 29 28 27 27 27 26 25 25 25 27 26 26
22 19 20 18 19 18 19 19 19 20 21 22 22 22 22 20 22 23 23 22 22 22 22 23 24 24 25 25 28 26 24 26 25 25 23 25 25 24 24 25 24 25 25
24 21 20 20 19 20 20 19 20 21 22 23 22 21 24 23 21 22 22 21 21 22 22 22 23 23 23 25 23 24 25 24 27 23 23 24 24 23 23 24 24 24 25
25 20 20 20 20 20 19 19 20 21 22 21 22 23 23 24 24 21 20 20 21 21 22 22 21 23 24 22 25 23 23 25 25 25 24 24 23 22 23 23 24 23 23
20 21 21 21 20 20 20 19 19 20 22 23 25 25 24 21 21 21 19 21 22 22 22 22 21 21 22 21 20 22 24 24 23 24 23 22 23 22 22 23 22 23 23
22 22 21 21 21 20 19 19 20 21 22 25 25 20 18 19 20 21 20 21 23 21 21 21 20 21 22 23 23 22 21 23 23 21 22 23 21 21 22 21 22 22 22
24 23 24 22 21 21 22 22 22 22 21 18 17 20 20 21 21 21 20 21 22 21 20 20 20 22 23 23 26 23 25 22 20 19 23 21 20 19 21 20 20 21 20
24 25 25 25 25 25 24 22 19 19 20 19 19 22 23 21 20 21 19 20 21 20 22 20 20 22 23 22 24 22 19 19 18 20 21 20 19 18 19 18 19 19 19
24 27 27 25 23 25 23 22 22 21 21 22 23 22 23 22 20 18 19 20 21 20 20 20 22 23 22 19 15 17 20 18 17 20 19 17 17 17 17 17 17 17 17
25 28 27 28 27 26 29 28 25 24 22 23 21 19 20 18 20 20 19 18 19 20 22 22 21 21 18 14 15 20 21 21 16 18 16 15 15 15 15 16 15 16 16
25 25 26 25 23 23 28 27 26 22 21 18 16 16 19 18 21 20 19 18 19 22 22 17 13 10 8 9 14 13 15 15 16 16 14 13 14 14 13 14 14 14 13
27 26 25 23 22 22 25 23 22 21 18 16 14 12 19 19 17 15 16 15 15 13 14 13 12 11 12 10 12 13 12 15 14 14 14 12 12 12 12 11 12 11 11
24 24 24 21 23 24 21 21 20 18 17 17 17 16 17 18 16 15 13 12 13 11 11 11 13 13 12 11 10 13 12 12 11 13 13 12 11 11 10 9 9 9 9
23 25 22 19 20 21 20 19 17 19 18 17 16 15 16 17 16 16 13 13 12 11 10 11 11 12 12 11 11 10 11 10 6 8 11 11 12 10 9 8 8 7 7
23 25 22 22 23 21 21 19 15 18 17 16 16 15 14 15 14 14 13 14 11 12 11 12 11 10 10 10 10 11 10 9 11 7 6 10 8 9 8 7 6 5 6
22 24 24 25 22 19 20 18 15 17 16 15 16 14 13 14 13 13 12 12 12 13 11 10 10 9 9 8 8 7 7 8 8 10 7 4 4 6 5 3 4 3 4
23 24 24 24 24 22 19 16 15 15 15 14 14 14 13 13 12 11 11 10 11 12 11 10 10 9 9 9 9 7 6 8 8 8 10 10 8 5 6 5 4 3 2
21 24 22 18 18 20 17 16 16 15 14 13 13 14 14 13 12 11 11 9 11 11 11 10 10 9 8 8 7 7 6 6 7 9 10 11 11 12 11 8 7 6 5
22 26 23 25 20 20 19 19 17 15 14 13 13 13 13 12 12 11 11 12 11 11 11 11 11 11 10 9 8 5 6 9 10 10 10 10 11 11 11 12 11 10 9
22 22 24 23 20 19 19 18 17 16 14 13 13 12 12 12 13 12 11 12 12 11 12 12 12 12 10 12 7 7 2 7 13 14 13 13 13 14 14 14 14 14 13
23 23 25 22 21 20 18 18 16 15 14 15 14 14 13 11 13 13 12 11 10 10 10 12 13 12 11 12 13 4 1 2 4 10 17 17 16 17 17 16 16 16 16
19 23 25 23 25 21 19 20 19 19 18 18 16 15 14 13 12 14 12 11 10 11 11 13 14 14 13 12 10 15 10 4 1 1 9 15 16 18 19 19 18 18 18
19 27 24 22 24 23 21 21 22 20 18 18 17 16 15 16 14 13 14 13 12 12 13 13 13 15 15 13 14 8 12 15 12 7 3 7 13 16 17 19 20 21 21
26 23 26 27 27 24 22 22 23 21 20 20 21 20 20 17 16 15 15 15 15 15 15 16 15 15 17 17 17 15 13 6 12 11 8 11 13 17 15 18 18 20 22
Wind_Direction
128 137 133 127 128 134 138 129 125 123 119 114 110 116 111 113 112 105 100 96 94 89 87 88 89 88 89 91 93 92 91 89 88 88 88 84 81 79 80 79 76 74 73
133 136 133 126 128 132 136 136 130 124 120 116 112 117 118 109 107 105 95 91 90 89 90 91 90 90 91 94 92 92 90 93 91 88 86 83 85 82 79 78 76 75 71
129 136 130 128 129 131 132 134 127 122 119 116 113 110 107 109 105 95 95 90 89 90 89 90 93 94 96 94 94 95 97 94 89 87 83 82 81 80 79 79 76 74 76
130 132 135 131 126 126 129 131 126 120 117 115 115 113 109 100 95 94 91 94 93 93 91 91 93 95 96 96 99 93 96 93 91 87 84 84 82 81 79 78 78 78 78
131 137 138 133 130 128 128 129 126 125 124 123 119 115 109 102 89 93 95 95 96 94 94 95 98 98 99 101 94 88 90 95 90 88 88 88 85 79 80 79 80 78 77
133 137 137 137 136 135 133 134 130 129 125 118 119 114 109 110 107 96 100 103 98 97 98 99 100 104 108 104 101 94 92 88 93 90 89 84 84 83 82 80 80 79 77
126 132 134 137 138 135 134 134 133 131 124 122 114 117 111 110 106 98 101 105 102 99 100 101 102 110 106 97 94 100 97 97 97 93 92 86 85 85 83 81 78 77 74
124 132 134 136 135 134 133 133 134 134 134 131 124 119 118 114 110 110 107 104 101 100 102 103 106 113 108 102 97 103 96 98 94 94 94 87 86 86 83 81 79 76 73
130 132 133 135 134 131 130 134 134 132 131 123 118 117 113 112 116 111 106 104 101 105 104 105 108 115 114 101 92 106 105 99 95 98 91 90 88 86 84 80 80 77 74
131 131 134 134 133 130 128 128 128 127 128 122 117 115 114 117 116 111 110 108 108 111 109 107 111 114 114 109 100 98 95 97 101 98 94 93 89 87 86 84 79 77 74
136 136 134 133 131 131 131 131 132 129 126 121 117 113 118 117 115 116 114 114 114 116 114 114 115 117 114 110 107 104 115 105 97 96 94 93 91 90 86 84 82 78 76
148 143 139 138 134 131 130 130 127 125 123 120 112 112 118 123 125 122 117 114 115 112 110 108 109 117 104 71 69 106 112 108 107 104 99 97 96 92 90 88 83 80 76
149 142 144 136 132 136 139 135 129 126 128 124 121 139 132 130 129 126 120 117 111 115 111 107 113 119 103 100 91 105 103 103 109 110 107 102 100 97 92 88 87 82 80
153 150 148 146 146 147 141 138 133 133 132 136 145 140 126 124 125 128 124 121 118 106 106 108 122 131 116 115 106 106 115 115 120 119 115 112 101 99 96 92 87 86 85
157 151 153 153 147 140 143 141 138 137 140 146 140 141 144 140 140 140 141 131 134 130 127 126 122 124 123 121 110 113 107 113 119 133 128 124 115 109 105 99 96 94 86
159 151 148 153 150 148 147 147 146 145 144 143 146 145 144 144 138 138 140 135 136 139 132 134 134 134 125 127 121 122 120 117 129 143 147 147 143 132 115 109 105 98 90
156 155 150 154 153 154 149 148 148 148 141 146 147 146 146 141 139 145 150 149 142 139 144 141 140 135 140 139 133 132 132 136 127 147 163 177 172 164 139 116 109 103 92
161 158 155 151 153 152 146 148 150 143 144 148 148 146 144 144 145 145 145 152 161 156 150 152 148 140 142 142 142 144 163 147 156 161 161 171 186 206 226 188 165 133 110
165 162 163 151 153 152 155 155 153 147 148 151 151 151 150 151 150 150 156 160 153 150 153 155 155 156 153 150 153 157 160 170 180 194 186 192 201 227 256 252 251 252 270
165 163 161 143 157 153 153 154 150 148 147 154 158 158 158 157 155 159 165 163 160 155 161 163 165 160 163 161 155 165 179 192 215 205 217 221 229 219 244 256 255 259 268
164 155 159 170 163 154 157 152 153 153 155 162 166 169 163 167 166 167 167 163 167 166 173 172 173 170 158 168 162 176 212 226 226 221 224 243 244 249 242 249 259 267 269
167 165 166 169 166 164 167 164 163 163 166 170 173 172 176 177 177 172 175 178 175 178 181 180 183 177 184 183 186 188 212 229 232 228 234 239 242 258 257 257 257 258 264
179 176 174 174 173 172 175 169 169 168 168 176 181 180 185 184 187 180 181 184 189 192 194 193 197 193 188 202 208 215 239 229 189 222 231 237 239 247 261 266 264 262 261
184 180 180 179 181 182 180 178 174 175 178 186 185 188 191 189 195 189 190 192 198 200 201 208 211 205 206 205 216 229 234 244 183 314 235 241 247 246 253 261 266 267 264
184 192 192 188 188 191 190 186 184 189 191 192 193 192 195 191 199 201 200 202 206 212 203 211 212 216 218 224 218 226 237 243 249 234 270 245 238 255 260 259 264 267 268
194 193 196 197 196 196 199 196 195 197 196 198 192 192 195 198 201 209 212 212 213 217 215 211 217 224 224 227 231 235 224 210 228 227 238 260 258 274 269 253 255 265 267
Height
795 797 800 803 806 808 810 813 814 816 817 819 821 824 826 827 828 829 831 832 833 835 837 837 838 839 840 842 842 842 843 845 846 847 849 849 850 852 851 852 852 851 851
794 798 801 803 807 809 812 815 816 818 819 821 824 826 828 829 832 832 833 835 837 837 841 841 841 843 844 845 846 846 847 850 852 853 853 854 854 857 856 856 855 855 854
796 799 802 805 808 811 814 816 818 820 822 824 827 829 832 832 834 836 837 839 840 842 844 844 845 847 848 850 850 851 852 853 856 858 858 859 859 860 861 860 859 860 860
796 801 803 807 810 813 816 819 821 822 824 826 829 831 833 836 837 839 841 843 844 844 846 847 849 850 851 853 853 854 857 859 861 861 863 863 865 864 865 864 865 865 865
797 802 805 808 812 815 818 821 823 825 827 829 831 833 833 837 839 843 844 846 847 848 849 851 853 855 856 857 858 860 862 863 863 865 866 867 867 868 868 868 869 869 868
800 803 807 810 814 817 820 823 825 828 829 832 833 835 837 840 840 845 847 849 850 852 853 855 857 859 861 862 863 865 864 864 868 867 869 870 871 872 872 872 872 872 872
801 805 809 812 816 819 823 826 828 830 831 833 836 838 840 843 844 845 850 852 853 855 856 858 860 861 863 864 864 866 867 869 871 871 873 873 874 875 875 874 875 875 874
803 807 812 815 818 821 825 828 831 833 833 835 838 839 841 844 847 849 852 855 854 858 859 861 863 864 866 868 868 870 871 873 874 875 875 876 878 878 877 878 877 877 877
805 809 814 817 821 823 827 830 833 835 837 838 840 842 843 847 851 853 855 857 857 860 863 864 865 867 869 871 872 874 874 876 876 877 879 879 881 881 879 880 882 879 880
808 812 816 820 823 825 829 832 836 839 840 840 843 845 846 850 854 855 857 859 860 864 864 868 869 870 872 875 876 875 876 878 879 880 881 882 882 883 883 884 884 882 883
811 814 818 822 825 827 830 833 838 841 843 845 847 849 849 853 856 858 861 862 863 866 867 868 871 874 875 877 878 879 879 880 881 881 883 884 885 886 886 886 885 886 885
811 816 819 823 825 829 832 835 840 843 846 849 850 852 853 855 858 860 863 865 865 867 870 872 874 876 877 878 879 880 880 881 882 884 886 887 887 888 888 888 888 887 887
811 816 820 824 827 830 833 836 840 844 848 850 852 853 855 857 860 862 864 867 869 870 871 873 876 878 880 881 882 882 882 883 885 887 888 889 888 889 890 890 889 889 889
812 816 819 824 828 830 835 838 841 845 849 852 854 855 857 859 861 864 867 869 871 872 874 875 877 879 881 883 882 884 884 885 887 888 889 890 891 891 891 892 891 891 891
812 817 820 825 828 830 835 839 843 845 850 853 856 858 858 861 863 866 868 870 873 875 876 877 878 881 881 883 883 885 886 886 887 889 890 891 892 893 893 894 893 894 893
813 817 820 825 829 833 835 840 843 847 850 854 856 858 860 862 863 865 869 871 874 875 877 879 880 882 882 885 886 887 888 888 888 890 891 892 892 894 895 895 895 894 894
812 817 820 824 829 834 837 840 844 847 850 854 857 859 861 863 864 867 869 871 873 876 878 880 881 883 884 885 886 888 889 890 891 891 892 893 894 895 895 894 895 895 894
812 817 821 823 828 833 836 841 844 847 850 854 857 859 861 864 866 868 870 872 875 876 878 880 882 884 885 886 888 889 890 891 893 893 893 893 894 895 895 894 894 893 893
812 815 820 823 828 833 838 841 845 847 850 854 857 859 861 864 866 868 870 871 874 876 877 880 882 884 885 886 888 889 890 892 893 893 894 894 894 894 893 893 892 893 892
812 815 821 823 830 832 838 841 846 848 851 855 857 859 861 863 865 867 869 870 873 875 877 880 881 884 885 887 888 889 890 891 891 892 892 892 893 892 891 891 891 891 891
811 815 820 825 830 832 837 840 845 847 850 854 856 858 860 862 865 867 869 870 872 874 877 879 881 882 884 886 887 888 889 890 889 890 890 890 890 890 890 889 889 888 889
810 814 820 824 828 831 836 839 843 846 849 853 856 858 860 861 864 866 869 870 872 874 876 877 879 881 882 883 885 886 888 889 887 887 887 887 887 887 887 886 886 886 885
809 813 817 821 826 830 834 837 841 844 848 851 854 856 859 860 863 866 867 869 871 873 874 876 877 879 880 881 882 883 885 886 883 883 884 884 884 884 883 883 883 883 882
808 812 816 820 824 828 831 834 837 840 844 847 851 854 856 859 861 863 865 867 869 871 872 874 875 877 878 879 880 880 881 882 882 883 881 880 880 880 880 879 879 879 879
807 811 815 819 822 825 828 832 834 838 841 845 848 851 853 856 859 861 863 865 867 868 870 870 872 873 875 876 877 878 878 879 880 880 880 877 877 875 875 875 875 875 874
804 809 813 816 819 822 826 829 832 835 838 842 844 847 850 853 856 858 860 861 863 864 866 867 868 870 871 873 874 875 875 876 876 876 877 874 873 871 870 871 871 870 870